Wind_Speed
11 12 11 8 6 6 6 8 11 14 16 19 18 18 22 28 28 26 33 30 26 25 22 19 16 15 12 10 10 9 8 6 5 6 5 5 6 7 7 5 5 5 6
12 13 11 10 7 5 5 9 14 16 18 19 19 21 22 26 29 33 29 26 24 22 19 17 16 14 13 12 11 12 11 9 7 9 10 9 7 8 8 7 6 7 8
15 14 13 13 10 5 8 12 15 18 19 19 19 21 23 29 31 30 27 24 21 19 18 16 16 16 14 15 14 16 16 15 10 12 12 10 7 8 6 7 7 8 9
17 17 17 16 15 11 12 15 18 20 21 20 20 23 24 25 27 27 24 21 19 18 18 17 17 16 17 17 16 14 15 14 15 18 19 14 9 8 8 8 9 8 9
17 16 18 19 21 17 15 15 20 21 22 20 19 21 22 23 24 25 22 18 20 19 19 18 17 18 18 16 16 17 15 15 17 21 21 19 13 7 7 8 8 9 10
14 12 13 16 20 22 17 16 19 21 21 20 15 20 19 24 23 21 18 18 21 21 19 17 17 17 18 18 19 16 17 17 17 21 21 20 18 12 8 7 8 8 9
11 9 9 14 19 21 17 17 19 19 20 18 17 19 16 21 23 20 18 21 21 20 19 18 18 17 17 17 18 17 15 15 17 20 20 18 18 19 12 11 9 9 8
10 10 10 14 19 23 23 15 14 21 18 20 20 22 20 20 21 18 18 21 21 20 18 18 17 16 14 15 14 17 12 13 15 18 18 16 16 18 17 12 11 8 7
12 10 11 14 17 20 23 21 13 17 22 15 22 23 20 22 21 18 20 21 19 19 18 16 15 15 12 11 12 15 12 12 13 15 17 15 14 14 15 15 12 8 6
11 10 11 14 16 17 20 25 16 18 21 17 17 18 19 20 19 21 21 19 17 17 17 16 14 14 10 9 9 9 11 8 13 13 14 13 12 11 11 11 12 11 10
9 9 10 13 14 16 17 22 22 16 17 17 15 21 21 20 21 24 20 17 16 16 16 14 13 13 11 8 7 8 8 8 8 8 10 11 11 10 8 8 8 9 10
8 9 8 10 12 13 17 19 20 22 18 16 15 19 18 25 24 23 19 16 15 14 14 13 11 10 9 5 5 6 8 7 3 4 5 6 8 7 6 5 6 6 7
8 6 8 10 11 11 12 15 18 22 24 26 19 13 17 24 25 24 21 17 12 11 10 8 8 9 9 7 5 4 4 4 1 1 2 4 5 3 4 4 3 4 4
9 7 9 11 9 5 10 10 16 18 17 21 23 15 21 15 23 16 11 12 9 8 7 5 4 5 7 7 6 9 7 8 4 3 7 2 2 2 2 3 3 1 2
10 9 8 9 7 9 10 9 11 18 15 15 15 18 16 11 14 15 12 9 7 5 4 4 3 5 8 10 9 9 6 8 5 3 6 8 7 1 4 4 3 4 3
11 10 6 4 5 5 8 11 11 14 17 14 15 13 9 12 10 8 9 7 5 5 5 5 4 4 10 6 5 3 6 7 5 6 7 7 6 1 4 4 5 4 4
14 9 3 3 2 4 6 8 12 11 14 14 13 12 10 9 8 8 8 8 8 9 6 3 4 5 8 7 7 4 6 7 5 6 6 7 5 2 1 3 6 7 7
11 9 3 4 5 1 2 4 9 9 10 9 10 8 9 9 8 8 7 7 6 4 4 5 5 7 8 6 6 8 8 11 8 7 6 5 5 5 5 4 5 4 8
10 7 2 0 2 1 1 1 2 5 6 8 8 8 8 10 10 10 9 8 8 8 7 6 7 7 6 5 2 4 6 8 9 7 6 5 4 5 5 5 6 6 7
7 5 3 3 8 2 3 4 6 6 6 7 7 8 9 8 9 9 7 6 5 7 3 7 5 5 6 6 7 7 8 8 10 11 8 8 11 8 8 7 5 4 6
9 5 4 5 5 4 5 4 5 9 8 7 8 6 6 5 7 7 9 5 4 7 4 4 5 5 6 6 7 8 9 9 9 9 11 11 10 2 8 7 7 11 8
11 9 10 8 5 5 7 5 4 4 6 8 7 8 6 6 7 5 5 3 3 4 4 6 6 4 7 7 8 8 8 9 10 11 13 16 6 10 6 4 1 1 6
13 10 7 12 8 7 6 3 3 2 5 4 6 7 8 7 7 4 1 1 4 4 6 8 7 8 10 11 11 10 11 10 8 11 6 7 8 14 7 4 3 3 5
13 13 11 10 9 6 6 1 3 4 5 6 9 6 4 6 7 5 5 5 6 8 10 12 13 14 15 17 14 14 13 14 13 12 10 8 5 1 6 4 4 4 7
10 10 11 11 9 5 3 5 1 2 2 4 3 3 5 6 6 5 4 6 9 11 11 13 14 15 17 17 16 15 15 15 14 13 9 11 9 10 7 9 5 8 5
9 10 9 9 8 7 2 1 3 1 2 2 2 0 2 4 5 5 5 6 7 6 6 7 9 11 12 13 13 12 13 12 12 11 7 7 3 3 6 13 11 9 5
Wind_Direction
87 84 84 78 77 88 100 123 131 127 128 126 121 127 127 126 132 133 134 136 139 138 132 128 126 122 126 126 116 111 108 108 130 133 134 143 145 137 130 136 155 154 150
87 83 79 76 77 90 131 134 143 136 138 136 132 127 128 129 131 132 134 139 137 133 129 129 124 126 125 112 111 103 95 86 93 100 102 101 108 120 136 142 146 146 152
94 84 78 76 61 102 136 139 145 144 143 141 138 131 129 133 134 134 138 140 136 131 130 126 121 122 118 111 103 93 88 74 81 87 90 85 91 111 132 138 142 144 145
95 85 76 68 60 92 133 137 145 149 149 147 140 138 134 138 136 139 141 138 129 134 129 125 121 115 114 106 104 100 96 95 90 84 79 82 91 111 117 135 146 143 138
106 94 78 66 62 78 114 132 146 152 152 148 142 143 139 141 145 143 140 133 137 131 126 123 118 117 105 107 100 108 105 101 91 83 76 71 70 93 108 106 143 146 138
114 107 80 62 60 71 98 128 144 149 152 149 143 148 148 147 145 140 135 127 130 127 121 119 114 109 104 100 98 100 98 95 88 80 72 64 58 66 108 116 112 139 134
112 103 78 69 70 68 91 111 133 145 151 157 135 141 162 149 144 137 128 124 125 122 120 118 114 109 103 100 96 100 92 96 93 84 72 63 57 58 81 105 106 121 123
93 96 85 79 77 70 72 114 125 150 140 145 151 152 153 149 144 133 127 126 125 125 123 120 115 107 101 97 96 95 106 98 91 84 76 64 59 60 69 91 100 106 104
99 100 90 80 79 70 72 78 116 135 146 125 139 148 150 155 143 138 131 130 129 126 122 121 116 109 106 102 99 93 92 86 78 80 79 67 65 59 65 71 81 93 102
87 94 97 88 87 83 76 74 93 130 134 129 147 149 149 146 142 129 132 131 127 125 127 130 125 118 116 103 87 102 102 76 77 64 69 63 56 65 62 68 71 72 74
74 96 91 90 87 90 89 84 74 116 137 130 131 159 155 139 140 133 134 131 129 130 132 133 136 134 138 132 112 96 110 99 63 54 56 59 53 57 63 64 66 70 66
91 103 103 96 94 86 77 90 85 82 104 125 123 150 163 148 146 130 127 127 130 132 136 145 152 148 148 132 111 106 121 118 78 57 51 54 59 53 55 62 72 67 64
77 93 121 111 98 86 84 93 96 84 88 82 97 142 163 155 142 137 129 121 126 133 135 151 160 161 158 143 162 155 186 216 239 288 108 91 58 56 46 16 48 77 77
75 102 94 108 111 130 88 104 111 112 102 94 85 87 126 151 149 151 160 135 136 135 137 142 174 200 194 203 190 225 253 239 193 296 11 84 108 6 18 11 324 269 150
60 81 83 92 107 120 99 118 129 122 119 116 120 89 106 123 136 136 147 156 148 134 150 160 203 247 222 204 202 208 233 239 252 295 306 266 287 92 301 300 279 260 249
50 80 54 73 103 125 112 112 140 136 132 139 140 145 159 155 178 184 163 170 156 185 205 178 204 207 236 231 226 216 288 265 247 265 288 303 334 166 286 293 303 271 256
30 28 52 51 70 108 153 124 135 141 137 150 140 148 155 161 160 180 180 195 187 193 211 202 254 244 237 200 225 200 231 261 279 274 237 271 299 219 217 316 346 254 258
21 18 29 32 355 20 119 134 132 139 138 146 137 153 162 163 166 174 193 173 183 188 228 234 254 251 259 226 198 214 201 223 252 262 267 268 252 295 261 264 263 296 288
357 13 323 344 229 198 152 162 166 155 160 154 158 170 183 170 178 178 189 188 204 220 221 220 238 245 257 272 258 270 237 228 233 245 257 219 275 282 271 237 265 274 264
350 43 71 146 86 146 161 183 189 183 189 161 180 189 196 198 200 196 202 198 212 226 250 202 212 215 232 245 244 255 251 253 253 243 258 265 249 259 241 237 234 258 259
59 46 48 55 85 88 70 110 159 160 169 182 188 209 201 196 216 203 202 184 270 247 230 260 242 270 251 237 248 260 264 245 261 258 253 254 257 226 230 231 272 256 242
70 54 32 30 40 53 56 88 107 119 160 166 175 171 165 158 156 172 177 206 349 198 232 265 254 246 265 261 259 269 270 269 268 262 278 239 216 243 235 241 202 199 199
50 42 8 22 12 18 44 143 125 129 163 157 156 167 158 161 163 168 185 230 264 244 253 262 264 258 262 261 264 266 267 265 265 274 254 279 241 196 211 142 146 183 202
42 39 17 9 5 10 45 125 170 127 172 160 150 151 173 166 177 184 218 243 272 284 288 286 280 272 263 265 264 265 266 267 260 258 258 259 215 112 186 163 120 231 222
27 25 14 5 349 351 16 15 52 148 167 161 152 129 176 177 180 213 260 297 305 311 315 306 297 286 284 278 275 269 262 258 252 255 252 246 240 246 250 220 218 304 239
23 32 23 4 335 333 10 21 13 43 51 83 72 54 253 275 277 262 277 299 312 320 330 327 314 299 291 287 278 263 249 252 249 248 249 241 260 263 207 230 254 268 279
Height
3164 3164 3164 3164 3163 3163 3163 3163 3165 3166 3166 3166 3167 3168 3169 3169 3171 3173 3176 3178 3181 3183 3185 3186 3187 3188 3189 3190 3191 3191 3192 3192 3192 3191 3191 3191 3192 3192 3192 3193 3194 3195 3195
3166 3166 3166 3164 3163 3162 3162 3163 3165 3167 3168 3169 3169 3170 3172 3172 3174 3176 3180 3183 3184 3186 3187 3188 3189 3190 3191 3191 3192 3192 3192 3193 3193 3192 3192 3191 3192 3193 3194 3195 3195 3196 3197
3168 3168 3167 3165 3164 3162 3162 3164 3165 3168 3168 3170 3171 3173 3175 3175 3177 3179 3183 3185 3187 3189 3190 3191 3191 3192 3193 3193 3194 3194 3195 3194 3194 3193 3193 3193 3194 3194 3195 3195 3196 3198 3198
3169 3169 3169 3168 3166 3163 3163 3164 3166 3168 3169 3172 3173 3175 3177 3180 3181 3183 3186 3189 3190 3192 3192 3192 3194 3195 3196 3196 3196 3197 3198 3198 3198 3196 3195 3196 3196 3196 3196 3196 3196 3197 3198
3172 3172 3172 3171 3168 3164 3164 3165 3166 3169 3171 3173 3176 3178 3179 3183 3185 3186 3188 3190 3191 3193 3194 3195 3197 3198 3198 3199 3200 3201 3202 3202 3201 3199 3198 3198 3198 3197 3197 3197 3197 3197 3198
3174 3175 3175 3173 3170 3167 3166 3167 3168 3170 3173 3175 3177 3180 3182 3184 3187 3189 3190 3191 3194 3195 3197 3198 3200 3202 3201 3202 3204 3204 3204 3204 3203 3200 3200 3201 3200 3199 3198 3199 3199 3200 3200
3177 3177 3177 3175 3173 3170 3168 3169 3170 3172 3174 3176 3178 3180 3182 3187 3189 3191 3192 3194 3196 3198 3199 3201 3203 3204 3204 3204 3205 3206 3207 3206 3204 3202 3201 3202 3202 3201 3200 3201 3202 3202 3202
3179 3179 3179 3178 3176 3173 3171 3172 3172 3172 3174 3177 3179 3180 3185 3188 3191 3193 3195 3197 3199 3200 3202 3204 3205 3206 3207 3207 3207 3208 3208 3209 3207 3204 3204 3204 3205 3204 3203 3202 3203 3203 3204
3181 3181 3180 3180 3178 3177 3175 3175 3176 3176 3178 3180 3181 3184 3184 3188 3193 3195 3197 3199 3201 3203 3204 3206 3207 3208 3209 3208 3209 3209 3210 3210 3209 3208 3206 3207 3207 3207 3206 3206 3205 3204 3205
3182 3182 3183 3183 3181 3180 3179 3178 3178 3179 3180 3181 3184 3188 3189 3190 3193 3195 3199 3202 3203 3205 3206 3207 3209 3210 3210 3210 3211 3212 3212 3212 3211 3211 3210 3209 3209 3209 3208 3207 3207 3207 3206
3183 3184 3185 3185 3184 3184 3183 3182 3182 3181 3182 3183 3185 3188 3190 3192 3195 3198 3201 3203 3205 3207 3208 3210 3211 3211 3212 3212 3212 3211 3212 3213 3213 3213 3212 3211 3211 3210 3210 3209 3208 3207 3207
3186 3186 3186 3186 3185 3185 3185 3186 3185 3184 3183 3185 3188 3189 3191 3194 3198 3199 3203 3205 3207 3208 3209 3211 3211 3212 3213 3213 3214 3213 3213 3213 3213 3213 3213 3211 3211 3211 3210 3210 3208 3208 3207
3188 3188 3187 3187 3188 3189 3189 3190 3189 3188 3187 3189 3191 3191 3193 3194 3199 3201 3203 3206 3208 3209 3210 3212 3212 3213 3213 3214 3214 3214 3214 3213 3212 3212 3211 3212 3211 3211 3211 3211 3210 3208 3207
3189 3190 3188 3189 3190 3191 3191 3192 3193 3193 3192 3193 3194 3194 3195 3199 3200 3203 3206 3206 3209 3210 3211 3212 3213 3214 3213 3213 3214 3214 3214 3213 3212 3213 3212 3211 3211 3211 3210 3210 3210 3209 3207
3190 3190 3190 3191 3192 3192 3193 3194 3196 3195 3196 3197 3199 3199 3200 3203 3205 3206 3207 3209 3211 3211 3212 3212 3212 3213 3213 3212 3212 3212 3211 3212 3212 3212 3211 3209 3207 3210 3207 3208 3209 3208 3207
3192 3192 3190 3192 3194 3195 3194 3196 3198 3198 3198 3199 3200 3202 3204 3205 3208 3208 3209 3210 3210 3211 3212 3211 3211 3212 3212 3212 3211 3209 3209 3210 3211 3210 3208 3208 3208 3208 3208 3206 3207 3206 3206
3192 3192 3193 3192 3193 3196 3197 3196 3199 3199 3199 3199 3201 3202 3203 3206 3206 3207 3209 3209 3209 3210 3211 3209 3210 3210 3210 3208 3208 3207 3208 3209 3209 3209 3207 3208 3208 3209 3208 3207 3206 3205 3205
3196 3195 3194 3192 3192 3193 3194 3197 3199 3199 3199 3200 3199 3201 3203 3204 3205 3206 3207 3208 3209 3208 3209 3209 3209 3209 3209 3208 3206 3206 3209 3209 3206 3204 3205 3205 3206 3206 3206 3205 3204 3204 3203
3197 3197 3197 3196 3196 3195 3195 3195 3197 3198 3199 3199 3200 3201 3203 3204 3204 3204 3206 3207 3208 3208 3207 3207 3207 3207 3206 3206 3205 3206 3207 3207 3206 3204 3205 3204 3203 3202 3200 3204 3203 3202 3201
3199 3200 3199 3200 3198 3197 3197 3196 3196 3197 3199 3200 3201 3201 3202 3203 3204 3204 3206 3206 3206 3207 3206 3206 3205 3204 3204 3204 3203 3203 3204 3204 3204 3203 3203 3203 3202 3201 3201 3200 3201 3200 3199
3200 3201 3201 3200 3200 3199 3198 3198 3198 3199 3198 3199 3201 3202 3202 3202 3203 3203 3205 3206 3205 3205 3205 3204 3203 3203 3204 3202 3201 3201 3201 3201 3201 3201 3200 3201 3200 3197 3201 3198 3198 3198 3197
3200 3201 3201 3200 3199 3199 3199 3199 3199 3199 3200 3201 3201 3202 3204 3203 3203 3204 3204 3204 3203 3202 3202 3203 3203 3201 3201 3200 3198 3198 3198 3198 3197 3198 3197 3196 3198 3196 3197 3196 3195 3196 3195
3199 3201 3201 3200 3199 3199 3200 3200 3200 3200 3201 3202 3203 3203 3202 3203 3202 3202 3201 3201 3201 3201 3201 3200 3200 3199 3198 3197 3196 3195 3195 3195 3196 3194 3194 3193 3195 3192 3191 3193 3193 3194 3196
3199 3200 3201 3200 3200 3200 3200 3201 3200 3200 3200 3202 3202 3202 3201 3201 3201 3201 3200 3201 3200 3200 3199 3198 3197 3196 3195 3193 3192 3191 3191 3191 3191 3193 3192 3192 3191 3191 3192 3192 3191 3193 3193
3199 3200 3201 3201 3200 3200 3200 3201 3200 3201 3201 3201 3200 3199 3199 3200 3200 3200 3200 3199 3199 3199 3198 3196 3195 3193 3191 3191 3189 3188 3186 3186 3187 3188 3188 3188 3188 3189 3190 3191 3191 3191 3190
3200 3200 3201 3202 3200 3199 3199 3200 3200 3200 3201 3201 3200 3200 3200 3200 3199 3200 3200 3200 3199 3198 3196 3194 3192 3191 3188 3187 3186 3185 3183 3182 3183 3184 3185 3185 3185 3184 3185 3186 3188 3188 3187